Wetterdaten: Woche 17.08.26 - 23.08.26 (KW34)
Datum Zeit Temp. I. Temp. A. Feuchte I. Feuchte A. Luftdruck Regen Wind Richtung Sonnenschein Solar Taupunkt Windchill Windböen
17.08.2026 00:00 24,0 °C 21,1 °C 57 % 71 % 1013,1 hPa 0,0 l/m² 2,5 km/h (1 Bft) NO 0,00 h 0 W/m² 15,5 °C 21,1 °C 4,5 km/h (1 Bft)
17.08.2026 01:00 24,0 °C 20,6 °C 57 % 73 % 1012,9 hPa 0,0 l/m² 3,9 km/h (1 Bft) W-NW 0,00 h 0 W/m² 15,6 °C 20,7 °C 6,1 km/h (2 Bft)
17.08.2026 02:00 24,0 °C 20,1 °C 56 % 75 % 1012,9 hPa 0,0 l/m² 1,5 km/h (1 Bft) O-NO 0,00 h 0 W/m² 15,5 °C 20,1 °C 2,9 km/h (1 Bft)
17.08.2026 03:00 23,9 °C 18,9 °C 56 % 79 % 1012,5 hPa 0,0 l/m² 0,9 km/h (0 Bft) N 0,00 h 0 W/m² 15,2 °C 18,9 °C 1,5 km/h (1 Bft)
17.08.2026 04:00 23,9 °C 18,6 °C 56 % 78 % 1012,3 hPa 0,0 l/m² 2,0 km/h (1 Bft) NW 0,00 h 0 W/m² 14,8 °C 18,6 °C 3,8 km/h (1 Bft)
17.08.2026 05:00 23,9 °C 17,7 °C 56 % 79 % 1011,7 hPa 0,0 l/m² 2,3 km/h (1 Bft) W-NW 0,00 h 5 W/m² 14,0 °C 17,7 °C 4,2 km/h (1 Bft)
17.08.2026 06:00 23,8 °C 17,4 °C 55 % 79 % 1011,5 hPa 0,0 l/m² 3,9 km/h (1 Bft) W-NW 0,00 h 16 W/m² 13,7 °C 17,4 °C 7,5 km/h (2 Bft)
17.08.2026 07:00 23,7 °C 18,0 °C 54 % 75 % 1011,8 hPa 0,0 l/m² 5,8 km/h (2 Bft) W-NW 0,60 h 88 W/m² 13,6 °C 17,7 °C 10,9 km/h (2 Bft)
17.08.2026 08:00 23,8 °C 18,6 °C 54 % 74 % 1011,7 hPa 0,0 l/m² 5,5 km/h (2 Bft) W 1,00 h 112 W/m² 13,8 °C 18,3 °C 9,7 km/h (2 Bft)
17.08.2026 09:00 23,8 °C 18,3 °C 54 % 74 % 1011,9 hPa 0,0 l/m² 7,4 km/h (2 Bft) W 1,00 h 79 W/m² 13,6 °C 17,5 °C 12,8 km/h (3 Bft)
17.08.2026 10:00 23,8 °C 18,2 °C 54 % 76 % 1012,1 hPa 0,0 l/m² 7,0 km/h (2 Bft) W-NW 1,00 h 92 W/m² 13,8 °C 17,6 °C 12,9 km/h (3 Bft)
17.08.2026 11:00 23,8 °C 17,3 °C 54 % 82 % 1012,4 hPa 0,4 l/m² 11,5 km/h (2 Bft) W-NW 0,75 h 91 W/m² 14,1 °C 15,1 °C 20,4 km/h (4 Bft)
17.08.2026 12:00 23,8 °C 17,5 °C 54 % 85 % 1012,5 hPa 0,0 l/m² 6,4 km/h (2 Bft) W 1,00 h 247 W/m² 15,0 °C 17,1 °C 10,7 km/h (2 Bft)
17.08.2026 13:00 23,8 °C 18,9 °C 54 % 78 % 1012,1 hPa 0,0 l/m² 5,3 km/h (1 Bft) W-NW 1,00 h 263 W/m² 15,0 °C 18,8 °C 8,9 km/h (2 Bft)
17.08.2026 14:00 23,8 °C 20,0 °C 54 % 71 % 1012,0 hPa 0,0 l/m² 3,9 km/h (1 Bft) W-NW 1,00 h 282 W/m² 14,5 °C 20,0 °C 6,3 km/h (2 Bft)
17.08.2026 15:00 23,8 °C 19,7 °C 54 % 72 % 1012,2 hPa 0,0 l/m² 4,3 km/h (1 Bft) W-NW 0,65 h 78 W/m² 14,5 °C 19,5 °C 7,4 km/h (2 Bft)
17.08.2026 16:00 23,7 °C 18,1 °C 55 % 79 % 1012,4 hPa 0,0 l/m² 8,4 km/h (2 Bft) W-NW 0,93 h 104 W/m² 14,3 °C 17,1 °C 14,4 km/h (3 Bft)
17.08.2026 17:00 23,7 °C 18,7 °C 55 % 76 % 1012,3 hPa 0,0 l/m² 7,5 km/h (2 Bft) W 0,75 h 113 W/m² 14,4 °C 18,1 °C 13,3 km/h (3 Bft)
17.08.2026 18:00 23,7 °C 19,1 °C 55 % 73 % 1012,2 hPa 0,0 l/m² 8,3 km/h (2 Bft) W 0,80 h 75 W/m² 14,1 °C 18,2 °C 14,5 km/h (3 Bft)
17.08.2026 19:00 23,7 °C 18,8 °C 55 % 72 % 1012,2 hPa 0,0 l/m² 10,2 km/h (2 Bft) W 0,45 h 46 W/m² 13,6 °C 17,3 °C 16,4 km/h (3 Bft)
17.08.2026 20:00 23,8 °C 17,9 °C 55 % 75 % 1012,4 hPa 0,0 l/m² 9,7 km/h (2 Bft) W 0,00 h 11 W/m² 13,3 °C 16,5 °C 15,2 km/h (3 Bft)
17.08.2026 21:00 23,7 °C 17,4 °C 55 % 77 % 1012,8 hPa 0,0 l/m² 8,2 km/h (2 Bft) W 0,00 h 0 W/m² 13,3 °C 16,5 °C 13,3 km/h (3 Bft)
17.08.2026 22:00 23,7 °C 16,8 °C 56 % 79 % 1013,0 hPa 0,0 l/m² 6,8 km/h (2 Bft) W 0,00 h 0 W/m² 13,0 °C 16,3 °C 11,6 km/h (2 Bft)
17.08.2026 23:00 23,7 °C 15,1 °C 56 % 84 % 1013,3 hPa 0,0 l/m² 1,6 km/h (1 Bft) W 0,00 h 0 W/m² 12,3 °C 15,1 °C 2,5 km/h (1 Bft)
18.08.2026 00:00 23,6 °C 15,2 °C 55 % 87 % 1013,5 hPa 0,0 l/m² 2,5 km/h (1 Bft) SW 0,00 h 0 W/m² 13,0 °C 15,2 °C 4,4 km/h (1 Bft)
18.08.2026 01:00 23,6 °C 15,0 °C 55 % 88 % 1013,4 hPa 0,0 l/m² 0,7 km/h (0 Bft) W-SW 0,00 h 0 W/m² 13,0 °C 15,0 °C 1,6 km/h (1 Bft)
18.08.2026 02:00 23,5 °C 14,3 °C 55 % 87 % 1013,2 hPa 0,0 l/m² 1,9 km/h (1 Bft) W 0,00 h 0 W/m² 12,2 °C 14,3 °C 4,0 km/h (1 Bft)
18.08.2026 03:00 23,4 °C 12,7 °C 55 % 89 % 1013,1 hPa 0,0 l/m² 2,6 km/h (1 Bft) SW 0,00 h 0 W/m² 10,9 °C 12,7 °C 3,8 km/h (1 Bft)
18.08.2026 04:00 23,4 °C 12,7 °C 54 % 91 % 1013,0 hPa 0,0 l/m² 3,7 km/h (1 Bft) W-SW 0,00 h 0 W/m² 11,2 °C 12,7 °C 5,4 km/h (2 Bft)
18.08.2026 05:00 23,4 °C 12,4 °C 54 % 90 % 1012,5 hPa 0,0 l/m² 2,3 km/h (1 Bft) W-SW 0,00 h 5 W/m² 10,8 °C 12,4 °C 3,8 km/h (1 Bft)
18.08.2026 06:00 23,2 °C 12,0 °C 53 % 92 % 1012,2 hPa 0,0 l/m² 0,8 km/h (0 Bft) W-SW 0,10 h 25 W/m² 10,8 °C 12,0 °C 1,7 km/h (1 Bft)
18.08.2026 07:00 23,2 °C 14,0 °C 53 % 91 % 1012,1 hPa 0,0 l/m² 0,4 km/h (0 Bft) N 1,00 h 90 W/m² 12,5 °C 14,0 °C 0,8 km/h (0 Bft)
18.08.2026 08:00 23,1 °C 15,6 °C 53 % 86 % 1012,2 hPa 0,0 l/m² 5,3 km/h (1 Bft) S-SW 1,00 h 106 W/m² 13,3 °C 15,4 °C 7,7 km/h (2 Bft)
18.08.2026 09:00 23,1 °C 16,7 °C 54 % 83 % 1011,6 hPa 0,0 l/m² 5,8 km/h (2 Bft) S-SW 1,00 h 176 W/m² 13,8 °C 16,6 °C 8,3 km/h (2 Bft)
18.08.2026 10:00 23,1 °C 17,9 °C 54 % 79 % 1011,2 hPa 0,0 l/m² 7,1 km/h (2 Bft) S-SW 1,00 h 238 W/m² 14,1 °C 17,4 °C 10,5 km/h (2 Bft)
18.08.2026 11:00 23,1 °C 19,5 °C 54 % 72 % 1010,8 hPa 0,0 l/m² 7,9 km/h (2 Bft) S-SW 1,00 h 353 W/m² 14,4 °C 18,8 °C 11,5 km/h (2 Bft)
18.08.2026 12:00 23,1 °C 19,9 °C 54 % 69 % 1010,4 hPa 0,0 l/m² 9,3 km/h (2 Bft) SW 1,00 h 245 W/m² 14,1 °C 18,8 °C 13,7 km/h (3 Bft)
18.08.2026 13:00 23,1 °C 20,4 °C 54 % 67 % 1009,8 hPa 0,0 l/m² 11,0 km/h (2 Bft) SW 1,00 h 262 W/m² 14,0 °C 18,9 °C 15,7 km/h (3 Bft)
18.08.2026 14:00 23,1 °C 19,8 °C 54 % 69 % 1009,3 hPa 0,0 l/m² 15,9 km/h (3 Bft) SW 1,00 h 274 W/m² 13,9 °C 16,9 °C 22,8 km/h (4 Bft)
18.08.2026 15:00 23,0 °C 18,9 °C 54 % 75 % 1009,1 hPa 0,0 l/m² 13,4 km/h (3 Bft) S-SW 1,00 h 132 W/m² 14,3 °C 16,4 °C 19,1 km/h (3 Bft)
18.08.2026 16:00 22,9 °C 17,8 °C 54 % 83 % 1008,8 hPa 0,0 l/m² 10,0 km/h (2 Bft) S-SW 1,00 h 151 W/m² 14,9 °C 16,3 °C 14,0 km/h (3 Bft)
18.08.2026 17:00 22,9 °C 17,0 °C 54 % 88 % 1008,4 hPa 0,6 l/m² 6,7 km/h (2 Bft) S 0,78 h 75 W/m² 15,0 °C 16,5 °C 9,5 km/h (2 Bft)
18.08.2026 18:00 22,8 °C 16,9 °C 56 % 91 % 1007,9 hPa 0,2 l/m² 7,6 km/h (2 Bft) S 0,68 h 65 W/m² 15,4 °C 16,1 °C 11,4 km/h (2 Bft)
18.08.2026 19:00 22,8 °C 16,8 °C 58 % 91 % 1007,5 hPa 0,0 l/m² 5,4 km/h (2 Bft) S-SO 0,22 h 33 W/m² 15,3 °C 16,6 °C 8,2 km/h (2 Bft)
18.08.2026 20:00 22,9 °C 16,8 °C 57 % 92 % 1007,4 hPa 0,0 l/m² 3,2 km/h (1 Bft) S-SO 0,00 h 6 W/m² 15,4 °C 16,8 °C 5,5 km/h (2 Bft)
18.08.2026 21:00 22,9 °C 16,8 °C 57 % 92 % 1007,6 hPa 0,0 l/m² 1,7 km/h (1 Bft) S-SO 0,00 h 0 W/m² 15,5 °C 16,8 °C 3,1 km/h (1 Bft)
18.08.2026 22:00 22,9 °C 17,0 °C 56 % 93 % 1007,7 hPa 0,0 l/m² 4,2 km/h (1 Bft) W-SW 0,00 h 0 W/m² 15,9 °C 17,0 °C 6,1 km/h (2 Bft)
18.08.2026 23:00 22,8 °C 16,9 °C 56 % 93 % 1007,9 hPa 0,0 l/m² 5,8 km/h (2 Bft) W-SW 0,00 h 0 W/m² 15,8 °C 16,7 °C 9,2 km/h (2 Bft)
19.08.2026 00:00 22,8 °C 16,7 °C 56 % 92 % 1008,0 hPa 0,0 l/m² 2,9 km/h (1 Bft) W-SW 0,00 h 0 W/m² 15,4 °C 16,7 °C 4,8 km/h (1 Bft)
19.08.2026 01:00 22,8 °C 16,9 °C 56 % 93 % 1008,0 hPa 0,0 l/m² 1,6 km/h (1 Bft) W-SW 0,00 h 0 W/m² 15,7 °C 16,9 °C 3,5 km/h (1 Bft)
19.08.2026 02:00 22,7 °C 17,2 °C 56 % 93 % 1008,1 hPa 0,0 l/m² 1,6 km/h (1 Bft) W-SW 0,00 h 0 W/m² 16,0 °C 17,2 °C 3,6 km/h (1 Bft)
19.08.2026 03:00 22,7 °C 16,7 °C 56 % 93 % 1007,8 hPa 0,0 l/m² 3,0 km/h (1 Bft) W-SW 0,00 h 0 W/m² 15,6 °C 16,7 °C 5,0 km/h (1 Bft)
19.08.2026 04:00 22,7 °C 15,4 °C 55 % 94 % 1007,8 hPa 0,0 l/m² 0,7 km/h (0 Bft) W-SW 0,00 h 0 W/m² 14,4 °C 15,4 °C 1,8 km/h (1 Bft)
19.08.2026 05:00 22,7 °C 15,3 °C 55 % 95 % 1007,6 hPa 0,0 l/m² 0,1 km/h (0 Bft) N 0,00 h 0 W/m² 14,4 °C 15,3 °C 0,7 km/h (0 Bft)
19.08.2026 06:00 22,6 °C 15,9 °C 56 % 95 % 1007,6 hPa 0,0 l/m² 5,0 km/h (1 Bft) S-SW 0,00 h 13 W/m² 15,1 °C 15,7 °C 7,6 km/h (2 Bft)
19.08.2026 07:00 22,6 °C 17,1 °C 57 % 94 % 1007,3 hPa 0,0 l/m² 4,8 km/h (1 Bft) S-SW 0,53 h 51 W/m² 16,0 °C 17,1 °C 7,3 km/h (2 Bft)
19.08.2026 08:00 22,6 °C 18,4 °C 56 % 90 % 1007,2 hPa 0,0 l/m² 3,9 km/h (1 Bft) SW 0,97 h 105 W/m² 16,7 °C 18,4 °C 6,9 km/h (2 Bft)
19.08.2026 09:00 22,6 °C 19,7 °C 56 % 85 % 1007,1 hPa 0,0 l/m² 10,6 km/h (2 Bft) S-SW 1,00 h 265 W/m² 17,1 °C 18,2 °C 15,1 km/h (3 Bft)
19.08.2026 10:00 22,4 °C 20,8 °C 56 % 80 % 1006,8 hPa 0,0 l/m² 8,7 km/h (2 Bft) S-SW 1,00 h 221 W/m² 17,1 °C 19,9 °C 12,2 km/h (2 Bft)
19.08.2026 11:00 22,3 °C 21,1 °C 56 % 77 % 1006,4 hPa 0,0 l/m² 10,0 km/h (2 Bft) S 1,00 h 216 W/m² 17,0 °C 19,9 °C 14,6 km/h (3 Bft)
19.08.2026 12:00 22,3 °C 21,4 °C 56 % 77 % 1006,0 hPa 0,0 l/m² 9,9 km/h (2 Bft) S 1,00 h 116 W/m² 17,1 °C 20,2 °C 14,6 km/h (3 Bft)
19.08.2026 13:00 22,2 °C 21,6 °C 56 % 78 % 1005,5 hPa 0,0 l/m² 9,4 km/h (2 Bft) S-SW 1,00 h 160 W/m² 17,6 °C 20,6 °C 13,4 km/h (3 Bft)
19.08.2026 14:00 22,2 °C 22,9 °C 56 % 72 % 1005,0 hPa 0,0 l/m² 10,4 km/h (2 Bft) SW 1,00 h 214 W/m² 17,6 °C 21,8 °C 15,3 km/h (3 Bft)
19.08.2026 15:00 22,2 °C 23,5 °C 56 % 66 % 1004,7 hPa 0,0 l/m² 13,5 km/h (3 Bft) SW 1,00 h 187 W/m² 16,8 °C 21,8 °C 19,5 km/h (3 Bft)
19.08.2026 16:00 22,2 °C 23,3 °C 56 % 63 % 1004,3 hPa 0,0 l/m² 11,9 km/h (2 Bft) SW 1,00 h 142 W/m² 15,7 °C 21,9 °C 17,1 km/h (3 Bft)
19.08.2026 17:00 22,2 °C 23,9 °C 57 % 58 % 1004,1 hPa 0,0 l/m² 11,6 km/h (2 Bft) W-SW 1,00 h 180 W/m² 15,2 °C 22,7 °C 16,9 km/h (3 Bft)
19.08.2026 18:00 22,3 °C 23,5 °C 57 % 58 % 1003,9 hPa 0,0 l/m² 6,0 km/h (2 Bft) W 0,85 h 82 W/m² 14,8 °C 23,2 °C 10,0 km/h (2 Bft)
19.08.2026 19:00 22,3 °C 21,8 °C 58 % 69 % 1003,4 hPa 0,0 l/m² 0,8 km/h (0 Bft) N 0,02 h 24 W/m² 15,8 °C 21,8 °C 1,5 km/h (1 Bft)
19.08.2026 20:00 22,4 °C 20,2 °C 58 % 75 % 1002,8 hPa 0,0 l/m² 1,5 km/h (1 Bft) S-SO 0,00 h 7 W/m² 15,7 °C 20,2 °C 2,3 km/h (1 Bft)
19.08.2026 21:00 22,5 °C 19,7 °C 58 % 76 % 1002,6 hPa 0,0 l/m² 3,9 km/h (1 Bft) N 0,00 h 0 W/m² 15,3 °C 19,6 °C 6,9 km/h (2 Bft)
19.08.2026 22:00 22,4 °C 17,4 °C 58 % 87 % 1002,8 hPa 7,2 l/m² 10,6 km/h (2 Bft) NW 0,00 h 0 W/m² 15,2 °C 15,7 °C 17,8 km/h (3 Bft)
19.08.2026 23:00 22,3 °C 16,2 °C 58 % 93 % 1003,5 hPa 4,0 l/m² 3,5 km/h (1 Bft) W 0,00 h 0 W/m² 15,0 °C 15,9 °C 7,3 km/h (2 Bft)
20.08.2026 00:00 22,2 °C 16,0 °C 58 % 94 % 1003,4 hPa 0,0 l/m² 3,1 km/h (1 Bft) S-SO 0,00 h 0 W/m² 15,0 °C 15,9 °C 5,0 km/h (1 Bft)
20.08.2026 01:00 22,2 °C 16,1 °C 58 % 95 % 1003,7 hPa 0,0 l/m² 3,8 km/h (1 Bft) S 0,00 h 0 W/m² 15,3 °C 16,0 °C 6,6 km/h (2 Bft)
20.08.2026 02:00 22,1 °C 16,3 °C 58 % 95 % 1003,9 hPa 0,0 l/m² 0,6 km/h (0 Bft) N 0,00 h 0 W/m² 15,5 °C 16,3 °C 1,6 km/h (1 Bft)
20.08.2026 03:00 22,1 °C 16,4 °C 58 % 95 % 1004,1 hPa 0,0 l/m² 0,1 km/h (0 Bft) N 0,00 h 0 W/m² 15,6 °C 16,4 °C 0,9 km/h (0 Bft)
20.08.2026 04:00 22,1 °C 16,4 °C 58 % 95 % 1004,4 hPa 0,0 l/m² 1,2 km/h (1 Bft) N 0,00 h 0 W/m² 15,6 °C 16,3 °C 2,2 km/h (1 Bft)
20.08.2026 05:00 22,3 °C 16,3 °C 58 % 95 % 1005,2 hPa 0,0 l/m² 1,1 km/h (0 Bft) W-SW 0,00 h 0 W/m² 15,5 °C 16,3 °C 2,0 km/h (1 Bft)
20.08.2026 06:00 22,4 °C 16,0 °C 58 % 95 % 1006,1 hPa 0,0 l/m² 1,9 km/h (1 Bft) SW 0,00 h 12 W/m² 15,2 °C 16,0 °C 3,4 km/h (1 Bft)
20.08.2026 07:00 22,4 °C 16,0 °C 59 % 95 % 1006,7 hPa 0,0 l/m² 1,0 km/h (0 Bft) SW 0,22 h 41 W/m² 15,2 °C 16,0 °C 2,3 km/h (1 Bft)
20.08.2026 08:00 22,5 °C 16,5 °C 58 % 93 % 1007,2 hPa 0,0 l/m² 2,4 km/h (1 Bft) W-SW 1,00 h 123 W/m² 15,3 °C 16,5 °C 4,4 km/h (1 Bft)
20.08.2026 09:00 22,6 °C 18,3 °C 58 % 88 % 1007,5 hPa 0,0 l/m² 3,8 km/h (1 Bft) S-SW 1,02 h 326 W/m² 16,2 °C 18,2 °C 6,5 km/h (2 Bft)
20.08.2026 10:00 22,6 °C 20,2 °C 57 % 80 % 1007,8 hPa 0,0 l/m² 9,9 km/h (2 Bft) SW 1,00 h 502 W/m² 16,6 °C 18,9 °C 14,7 km/h (3 Bft)
20.08.2026 11:00 22,7 °C 22,4 °C 57 % 71 % 1007,8 hPa 0,0 l/m² 11,6 km/h (2 Bft) SW 1,00 h 663 W/m² 16,8 °C 20,9 °C 16,9 km/h (3 Bft)
20.08.2026 12:00 22,7 °C 23,5 °C 57 % 65 % 1007,7 hPa 0,0 l/m² 12,2 km/h (2 Bft) S-SW 1,00 h 675 W/m² 16,5 °C 22,1 °C 18,3 km/h (3 Bft)
20.08.2026 13:00 22,7 °C 24,2 °C 57 % 58 % 1007,6 hPa 0,0 l/m² 13,6 km/h (3 Bft) SW 1,00 h 689 W/m² 15,5 °C 22,7 °C 19,7 km/h (3 Bft)
20.08.2026 14:00 22,7 °C 25,2 °C 56 % 53 % 1007,7 hPa 0,0 l/m² 16,5 km/h (3 Bft) SW 1,00 h 693 W/m² 14,8 °C 23,3 °C 23,6 km/h (4 Bft)
20.08.2026 15:00 22,7 °C 26,0 °C 56 % 48 % 1007,5 hPa 0,0 l/m² 14,0 km/h (3 Bft) SW 1,00 h 708 W/m² 14,3 °C 24,7 °C 20,3 km/h (4 Bft)
20.08.2026 16:00 22,7 °C 26,0 °C 56 % 44 % 1007,3 hPa 0,0 l/m² 15,7 km/h (3 Bft) SW 1,00 h 525 W/m² 12,9 °C 24,5 °C 21,9 km/h (4 Bft)
20.08.2026 17:00 22,8 °C 25,8 °C 56 % 44 % 1006,9 hPa 0,0 l/m² 16,2 km/h (3 Bft) SW 1,00 h 229 W/m² 12,5 °C 24,2 °C 22,8 km/h (4 Bft)
20.08.2026 18:00 22,9 °C 25,2 °C 57 % 45 % 1006,7 hPa 0,0 l/m² 13,5 km/h (3 Bft) SW 0,53 h 64 W/m² 12,3 °C 23,8 °C 19,5 km/h (3 Bft)
20.08.2026 19:00 22,8 °C 23,8 °C 56 % 50 % 1006,8 hPa 0,0 l/m² 10,5 km/h (2 Bft) SW 0,00 h 25 W/m² 12,7 °C 22,8 °C 15,1 km/h (3 Bft)
20.08.2026 20:00 22,9 °C 20,3 °C 57 % 64 % 1007,4 hPa 0,0 l/m² 4,2 km/h (1 Bft) SW 0,00 h 9 W/m² 13,1 °C 20,3 °C 5,8 km/h (2 Bft)
20.08.2026 21:00 23,0 °C 17,0 °C 57 % 79 % 1008,0 hPa 0,0 l/m² 0,3 km/h (0 Bft) N 0,00 h 0 W/m² 13,2 °C 17,0 °C 0,7 km/h (0 Bft)
20.08.2026 22:00 22,9 °C 15,2 °C 57 % 87 % 1007,9 hPa 0,0 l/m² 0,5 km/h (0 Bft) N 0,00 h 0 W/m² 13,0 °C 15,2 °C 1,3 km/h (1 Bft)
20.08.2026 23:00 22,8 °C 14,5 °C 57 % 89 % 1007,9 hPa 0,0 l/m² 0,1 km/h (0 Bft) N 0,00 h 0 W/m² 12,6 °C 14,5 °C 0,2 km/h (0 Bft)
21.08.2026 00:00 22,8 °C 14,5 °C 57 % 88 % 1008,4 hPa 0,0 l/m² 0,5 km/h (0 Bft) N 0,00 h 0 W/m² 12,5 °C 14,5 °C 1,2 km/h (1 Bft)
21.08.2026 01:00 22,8 °C 13,5 °C 57 % 91 % 1008,6 hPa 0,0 l/m² 0,0 km/h (0 Bft) N 0,00 h 0 W/m² 12,0 °C 13,5 °C 0,1 km/h (0 Bft)
21.08.2026 02:00 22,7 °C 12,4 °C 57 % 92 % 1008,7 hPa 0,0 l/m² 0,0 km/h (0 Bft) N 0,00 h 0 W/m² 11,2 °C 12,4 °C 0,0 km/h (0 Bft)
21.08.2026 03:00 22,7 °C 11,9 °C 56 % 93 % 1008,9 hPa 0,0 l/m² 0,4 km/h (0 Bft) N 0,00 h 0 W/m² 10,9 °C 11,9 °C 0,7 km/h (0 Bft)
21.08.2026 04:00 22,7 °C 11,4 °C 56 % 94 % 1009,2 hPa 0,0 l/m² 0,3 km/h (0 Bft) N 0,00 h 0 W/m² 10,5 °C 11,4 °C 0,7 km/h (0 Bft)
21.08.2026 05:00 22,7 °C 11,1 °C 56 % 94 % 1009,5 hPa 0,0 l/m² 1,0 km/h (0 Bft) S-SW 0,00 h 0 W/m² 10,2 °C 11,1 °C 1,9 km/h (1 Bft)
21.08.2026 06:00 22,5 °C 11,2 °C 55 % 94 % 1009,6 hPa 0,0 l/m² 0,2 km/h (0 Bft) N 0,00 h 20 W/m² 10,3 °C 11,2 °C 0,5 km/h (0 Bft)
21.08.2026 07:00 22,4 °C 13,0 °C 54 % 94 % 1009,6 hPa 0,0 l/m² 0,5 km/h (0 Bft) N 0,98 h 108 W/m² 12,2 °C 13,0 °C 0,8 km/h (0 Bft)
21.08.2026 08:00 22,5 °C 16,3 °C 55 % 87 % 1009,5 hPa 0,0 l/m² 0,7 km/h (0 Bft) N 1,00 h 288 W/m² 14,0 °C 16,3 °C 1,7 km/h (1 Bft)
21.08.2026 09:00 22,7 °C 21,0 °C 55 % 69 % 1009,4 hPa 0,0 l/m² 4,7 km/h (1 Bft) S-SW 1,00 h 479 W/m² 15,0 °C 20,7 °C 7,9 km/h (2 Bft)
21.08.2026 10:00 22,7 °C 22,8 °C 55 % 60 % 1009,9 hPa 0,0 l/m² 9,9 km/h (2 Bft) S-SW 1,00 h 596 W/m² 14,6 °C 21,8 °C 14,4 km/h (3 Bft)
21.08.2026 11:00 22,8 °C 23,9 °C 55 % 54 % 1009,9 hPa 0,0 l/m² 10,7 km/h (2 Bft) S-SW 1,00 h 699 W/m² 14,2 °C 22,9 °C 15,6 km/h (3 Bft)
21.08.2026 12:00 22,8 °C 24,4 °C 55 % 51 % 1009,5 hPa 0,0 l/m² 9,3 km/h (2 Bft) W-SW 1,00 h 659 W/m² 13,7 °C 23,7 °C 13,7 km/h (3 Bft)
21.08.2026 13:00 22,7 °C 24,6 °C 55 % 51 % 1009,3 hPa 0,0 l/m² 5,8 km/h (2 Bft) SW 1,00 h 509 W/m² 13,7 °C 24,4 °C 9,8 km/h (2 Bft)
21.08.2026 14:00 22,7 °C 24,3 °C 55 % 51 % 1009,0 hPa 0,0 l/m² 4,9 km/h (1 Bft) SW 1,00 h 335 W/m² 13,5 °C 24,1 °C 7,8 km/h (2 Bft)
21.08.2026 15:00 22,7 °C 23,8 °C 56 % 52 % 1008,5 hPa 0,0 l/m² 5,7 km/h (2 Bft) SW 1,00 h 208 W/m² 13,4 °C 23,6 °C 8,2 km/h (2 Bft)
21.08.2026 16:00 22,8 °C 23,5 °C 56 % 53 % 1008,2 hPa 0,0 l/m² 5,8 km/h (2 Bft) W-SW 1,00 h 153 W/m² 13,4 °C 23,4 °C 9,0 km/h (2 Bft)
21.08.2026 17:00 22,7 °C 22,8 °C 56 % 56 % 1008,3 hPa 0,0 l/m² 7,4 km/h (2 Bft) W-SW 0,98 h 78 W/m² 13,4 °C 22,3 °C 11,9 km/h (2 Bft)
21.08.2026 18:00 22,7 °C 21,5 °C 55 % 58 % 1008,8 hPa 0,0 l/m² 6,8 km/h (2 Bft) W-SW 0,00 h 34 W/m² 12,9 °C 21,1 °C 10,3 km/h (2 Bft)
21.08.2026 19:00 22,7 °C 19,3 °C 56 % 68 % 1009,3 hPa 0,4 l/m² 2,8 km/h (1 Bft) O-NO 0,00 h 12 W/m² 13,2 °C 19,3 °C 5,0 km/h (1 Bft)
21.08.2026 20:00 22,7 °C 16,3 °C 56 % 84 % 1009,1 hPa 0,2 l/m² 4,4 km/h (1 Bft) O 0,00 h 0 W/m² 13,6 °C 15,8 °C 6,7 km/h (2 Bft)
21.08.2026 21:00 22,7 °C 15,8 °C 56 % 90 % 1009,7 hPa 0,0 l/m² 1,1 km/h (1 Bft) N 0,00 h 0 W/m² 14,2 °C 15,8 °C 1,9 km/h (1 Bft)
21.08.2026 22:00 22,7 °C 15,9 °C 56 % 91 % 1009,9 hPa 1,0 l/m² 0,8 km/h (0 Bft) W-SW 0,00 h 0 W/m² 14,4 °C 15,9 °C 1,6 km/h (1 Bft)
21.08.2026 23:00 22,7 °C 15,5 °C 57 % 93 % 1009,7 hPa 0,0 l/m² 1,4 km/h (1 Bft) W-SW 0,00 h 0 W/m² 14,3 °C 15,5 °C 2,2 km/h (1 Bft)
22.08.2026 00:00 22,6 °C 14,9 °C 57 % 93 % 1009,5 hPa 0,0 l/m² 0,1 km/h (0 Bft) S-SW 0,00 h 0 W/m² 13,8 °C 14,9 °C 0,2 km/h (0 Bft)
22.08.2026 01:00 22,6 °C 14,1 °C 57 % 94 % 1009,9 hPa 0,0 l/m² 0,8 km/h (0 Bft) S-SW 0,00 h 0 W/m² 13,2 °C 14,1 °C 1,8 km/h (1 Bft)
22.08.2026 02:00 22,6 °C 14,3 °C 57 % 94 % 1010,2 hPa 0,0 l/m² 2,2 km/h (1 Bft) W-SW 0,00 h 0 W/m² 13,3 °C 14,3 °C 4,0 km/h (1 Bft)
22.08.2026 03:00 22,5 °C 14,5 °C 56 % 93 % 1010,6 hPa 0,0 l/m² 2,5 km/h (1 Bft) W-SW 0,00 h 0 W/m² 13,4 °C 14,5 °C 4,7 km/h (1 Bft)
22.08.2026 04:00 22,4 °C 14,4 °C 56 % 93 % 1010,7 hPa 0,0 l/m² 3,0 km/h (1 Bft) W 0,00 h 0 W/m² 13,2 °C 14,4 °C 6,3 km/h (2 Bft)
22.08.2026 05:00 22,4 °C 14,7 °C 56 % 92 % 1010,9 hPa 0,0 l/m² 4,3 km/h (1 Bft) W 0,00 h 0 W/m² 13,4 °C 14,7 °C 7,9 km/h (2 Bft)
22.08.2026 06:00 22,3 °C 14,7 °C 56 % 92 % 1011,1 hPa 0,0 l/m² 3,7 km/h (1 Bft) W 0,00 h 6 W/m² 13,4 °C 14,7 °C 7,2 km/h (2 Bft)
22.08.2026 07:00 22,3 °C 14,6 °C 56 % 90 % 1011,7 hPa 0,2 l/m² 6,2 km/h (2 Bft) W 0,00 h 30 W/m² 12,9 °C 14,1 °C 11,3 km/h (2 Bft)
22.08.2026 08:00 22,3 °C 14,6 °C 57 % 89 % 1012,5 hPa 0,0 l/m² 7,4 km/h (2 Bft) W 0,65 h 57 W/m² 12,8 °C 13,9 °C 13,3 km/h (3 Bft)
22.08.2026 09:00 22,4 °C 15,5 °C 58 % 85 % 1013,4 hPa 0,0 l/m² 8,4 km/h (2 Bft) W 1,00 h 140 W/m² 13,0 °C 14,3 °C 13,8 km/h (3 Bft)
22.08.2026 10:00 22,4 °C 16,1 °C 57 % 83 % 1013,9 hPa 0,0 l/m² 9,0 km/h (2 Bft) W-SW 1,00 h 163 W/m² 13,3 °C 14,9 °C 13,8 km/h (3 Bft)
22.08.2026 11:00 22,3 °C 16,4 °C 58 % 84 % 1014,4 hPa 0,0 l/m² 10,0 km/h (2 Bft) SW 0,72 h 222 W/m² 13,8 °C 14,8 °C 15,5 km/h (3 Bft)
22.08.2026 12:00 22,5 °C 16,2 °C 61 % 81 % 1015,0 hPa 0,0 l/m² 8,7 km/h (2 Bft) W 1,00 h 276 W/m² 12,9 °C 15,0 °C 13,5 km/h (3 Bft)
22.08.2026 13:00 22,4 °C 17,7 °C 59 % 77 % 1015,4 hPa 1,0 l/m² 9,9 km/h (2 Bft) SW 0,95 h 256 W/m² 13,5 °C 16,2 °C 15,1 km/h (3 Bft)
22.08.2026 14:00 22,2 °C 16,5 °C 58 % 87 % 1015,9 hPa 0,0 l/m² 3,7 km/h (1 Bft) SW 1,00 h 330 W/m² 14,4 °C 16,5 °C 6,4 km/h (2 Bft)
22.08.2026 15:00 22,3 °C 19,9 °C 58 % 73 % 1015,9 hPa 0,0 l/m² 9,6 km/h (2 Bft) SW 1,00 h 551 W/m² 14,9 °C 18,7 °C 14,3 km/h (3 Bft)
22.08.2026 16:00 22,3 °C 21,2 °C 58 % 57 % 1016,0 hPa 0,0 l/m² 10,7 km/h (2 Bft) W 1,00 h 415 W/m² 12,3 °C 19,8 °C 17,5 km/h (3 Bft)
22.08.2026 17:00 22,3 °C 21,1 °C 58 % 54 % 1016,3 hPa 0,0 l/m² 12,1 km/h (2 Bft) W 1,00 h 187 W/m² 11,4 °C 19,4 °C 19,5 km/h (3 Bft)
22.08.2026 18:00 22,3 °C 19,9 °C 58 % 59 % 1016,7 hPa 0,0 l/m² 10,7 km/h (2 Bft) W 1,00 h 109 W/m² 11,6 °C 18,4 °C 18,7 km/h (3 Bft)
22.08.2026 19:00 22,3 °C 19,1 °C 58 % 62 % 1017,1 hPa 0,0 l/m² 6,8 km/h (2 Bft) W 0,25 h 37 W/m² 11,5 °C 18,7 °C 11,9 km/h (2 Bft)
22.08.2026 20:00 22,3 °C 15,9 °C 58 % 73 % 1017,7 hPa 0,0 l/m² 2,1 km/h (1 Bft) W 0,00 h 8 W/m² 11,1 °C 15,9 °C 3,9 km/h (1 Bft)
22.08.2026 21:00 22,2 °C 12,8 °C 58 % 86 % 1018,5 hPa 0,0 l/m² 0,0 km/h (0 Bft) N 0,00 h 0 W/m² 10,6 °C 12,8 °C 0,1 km/h (0 Bft)
22.08.2026 22:00 22,2 °C 11,9 °C 58 % 89 % 1019,0 hPa 0,0 l/m² 0,6 km/h (0 Bft) N 0,00 h 0 W/m² 10,1 °C 11,9 °C 1,5 km/h (1 Bft)
22.08.2026 23:00 22,1 °C 11,2 °C 58 % 89 % 1019,6 hPa 0,0 l/m² 0,1 km/h (0 Bft) SW 0,00 h 0 W/m² 9,6 °C 11,2 °C 0,2 km/h (0 Bft)
23.08.2026 00:00 22,0 °C 11,1 °C 57 % 89 % 1020,1 hPa 0,0 l/m² 2,0 km/h (1 Bft) W-SW 0,00 h 0 W/m² 9,4 °C 11,1 °C 4,1 km/h (1 Bft)
23.08.2026 01:00 21,9 °C 11,0 °C 57 % 88 % 1020,6 hPa 0,0 l/m² 2,5 km/h (1 Bft) W-SW 0,00 h 0 W/m² 9,1 °C 11,0 °C 4,2 km/h (1 Bft)
23.08.2026 02:00 21,8 °C 9,8 °C 57 % 91 % 1020,7 hPa 0,0 l/m² 0,1 km/h (0 Bft) N 0,00 h 0 W/m² 8,5 °C 9,8 °C 0,2 km/h (0 Bft)
23.08.2026 03:00 21,8 °C 9,7 °C 58 % 92 % 1020,9 hPa 0,0 l/m² 0,3 km/h (0 Bft) N 0,00 h 0 W/m² 8,5 °C 9,7 °C 0,6 km/h (0 Bft)
23.08.2026 04:00 21,7 °C 9,5 °C 57 % 92 % 1020,9 hPa 0,0 l/m² 1,1 km/h (0 Bft) N 0,00 h 0 W/m² 8,3 °C 9,5 °C 2,1 km/h (1 Bft)
23.08.2026 05:00 21,7 °C 9,3 °C 57 % 92 % 1021,2 hPa 0,0 l/m² 1,8 km/h (1 Bft) W 0,00 h 0 W/m² 8,1 °C 9,3 °C 3,4 km/h (1 Bft)
23.08.2026 06:00 21,6 °C 10,2 °C 57 % 91 % 1021,5 hPa 0,2 l/m² 2,1 km/h (1 Bft) W 0,00 h 19 W/m² 8,8 °C 10,2 °C 4,2 km/h (1 Bft)
23.08.2026 07:00 21,5 °C 12,2 °C 57 % 89 % 1021,8 hPa 0,0 l/m² 1,8 km/h (1 Bft) W 0,52 h 55 W/m² 10,5 °C 12,2 °C 3,8 km/h (1 Bft)
23.08.2026 08:00 21,6 °C 14,1 °C 59 % 84 % 1022,0 hPa 0,0 l/m² 9,0 km/h (2 Bft) W-SW 1,00 h 122 W/m² 11,5 °C 12,6 °C 14,3 km/h (3 Bft)
23.08.2026 09:00 21,9 °C 15,5 °C 59 % 76 % 1022,3 hPa 0,0 l/m² 13,4 km/h (3 Bft) W-SW 1,00 h 229 W/m² 11,4 °C 12,4 °C 19,8 km/h (3 Bft)
23.08.2026 10:00 21,8 °C 16,9 °C 57 % 64 % 1022,4 hPa 0,0 l/m² 13,4 km/h (3 Bft) W-SW 1,00 h 292 W/m² 9,9 °C 14,1 °C 19,8 km/h (3 Bft)
23.08.2026 11:00 21,7 °C 17,5 °C 55 % 62 % 1022,2 hPa 0,0 l/m² 12,7 km/h (3 Bft) W-SW 1,00 h 341 W/m² 10,2 °C 15,0 °C 18,6 km/h (3 Bft)
23.08.2026 12:00 21,7 °C 18,1 °C 52 % 59 % 1022,1 hPa 0,0 l/m² 9,7 km/h (2 Bft) W-SW 1,00 h 351 W/m² 10,0 °C 16,6 °C 15,0 km/h (3 Bft)
23.08.2026 13:00 21,7 °C 19,1 °C 53 % 56 % 1022,0 hPa 0,0 l/m² 11,4 km/h (2 Bft) SW 1,00 h 386 W/m² 10,0 °C 17,3 °C 16,9 km/h (3 Bft)
23.08.2026 14:00 21,7 °C 18,9 °C 53 % 57 % 1022,1 hPa 0,0 l/m² 10,9 km/h (2 Bft) W-SW 1,00 h 207 W/m² 10,0 °C 17,1 °C 16,4 km/h (3 Bft)
23.08.2026 15:00 21,8 °C 19,1 °C 54 % 58 % 1022,0 hPa 0,0 l/m² 6,8 km/h (2 Bft) W 1,00 h 246 W/m² 10,5 °C 18,5 °C 11,7 km/h (2 Bft)
23.08.2026 16:00 21,7 °C 19,6 °C 52 % 55 % 1021,9 hPa 0,0 l/m² 10,8 km/h (2 Bft) W-SW 1,00 h 237 W/m² 10,3 °C 18,0 °C 15,9 km/h (3 Bft)
23.08.2026 17:00 21,7 °C 19,5 °C 53 % 54 % 1021,8 hPa 0,0 l/m² 9,5 km/h (2 Bft) W-SW 1,00 h 139 W/m² 10,0 °C 18,3 °C 14,6 km/h (3 Bft)
23.08.2026 18:00 21,7 °C 19,3 °C 53 % 56 % 1021,7 hPa 0,0 l/m² 6,3 km/h (2 Bft) W-SW 0,93 h 89 W/m² 10,3 °C 19,0 °C 10,0 km/h (2 Bft)
23.08.2026 19:00 21,7 °C 18,2 °C 55 % 61 % 1021,6 hPa 0,0 l/m² 2,5 km/h (1 Bft) W-SW 0,07 h 35 W/m² 10,6 °C 18,2 °C 4,5 km/h (1 Bft)
23.08.2026 20:00 21,8 °C 15,6 °C 56 % 68 % 1021,8 hPa 0,0 l/m² 2,9 km/h (1 Bft) W-SW 0,00 h 8 W/m² 9,6 °C 15,6 °C 4,5 km/h (1 Bft)
23.08.2026 21:00 21,9 °C 13,6 °C 55 % 78 % 1022,1 hPa 0,0 l/m² 0,1 km/h (0 Bft) W-SW 0,00 h 0 W/m² 9,8 °C 13,6 °C 0,6 km/h (0 Bft)
23.08.2026 22:00 22,0 °C 12,0 °C 55 % 85 % 1022,2 hPa 0,0 l/m² 0,5 km/h (0 Bft) SW 0,00 h 0 W/m² 9,5 °C 12,0 °C 1,2 km/h (1 Bft)
23.08.2026 23:00 21,8 °C 11,0 °C 55 % 87 % 1022,3 hPa 0,0 l/m² 0,2 km/h (0 Bft) W-SW 0,00 h 0 W/m² 9,0 °C 11,0 °C 0,5 km/h (0 Bft)
Min-Datum _ 23.08.26 23.08.26 23.08.26 20.08.26 19.08.26 - 23.08.26 - - - 23.08.26 23.08.26 23.08.26
_ Min-Zeit 08:04 04:58 16:35 17:01 21:51 - 23:03 - - - 04:52 04:58 23:03
Minimum _ 21,4 °C 8,8 °C 51 % 42 % 1002,1 hPa - 0,0 km/h (0 Bft) - - - 7,5 °C 8,8 °C 0,0 km/h (0 Bft)
Max-Datum _ 17.08.26 20.08.26 22.08.26 20.08.26 23.08.26 19.08.26 20.08.26 - 22.08.26 20.08.26 19.08.26 20.08.26 22.08.26
_ Max-Zeit 01:06 15:40 12:29 04:43 10:09 22:33 14:57 - 15:14 12:45 14:04 15:39 16:47
Maximum _ 24,1 °C 26,4 °C 62 % 96 % 1022,5 hPa 7,2 l/m² 23,5 km/h
SW (4 Bft)
- 0,10 h 1027 W/m² 18,1 °C 25,7 °C 33,8 km/h
W (5 Bft)
Durchschnitt _ 22,7 °C 17,5 °C 56 % 79 % 1011,5 hPa #15,4 l/m² 5,5 km/h (2 Bft) W-SW #77:54 h 125 W/m² 13,4 °C 17,0 °C 8,7 km/h (2 Bft)
© 2009 Mathias Hoßbach